Total_Precipitation_Accumulation
0.05 0.05 0.12 0.11 0.09 0.12 0.15 0.16 0.16 0.14 0.11 0.12 0.12 0.10 0.07 0.05 0.05 0.05 0.05 0.06 0.09 0.13 0.17 0.21 0.24 0.25 0.26 0.26 0.24 0.24 0.24 0.25 0.30 0.32 0.34 0.36 0.45 0.58 0.73 0.74 0.84 0.54 0.45
0.02 0.03 0.10 0.10 0.08 0.10 0.12 0.14 0.15 0.14 0.12 0.10 0.09 0.08 0.07 0.06 0.05 0.06 0.08 0.10 0.12 0.14 0.17 0.20 0.20 0.20 0.20 0.17 0.16 0.17 0.19 0.26 0.34 0.39 0.43 0.42 0.50 0.62 0.70 0.72 0.85 0.49 0.40
0.04 0.03 0.06 0.09 0.08 0.09 0.11 0.13 0.15 0.14 0.13 0.12 0.11 0.09 0.08 0.08 0.08 0.08 0.09 0.12 0.13 0.15 0.16 0.17 0.16 0.15 0.13 0.12 0.12 0.16 0.23 0.31 0.49 0.68 0.90 0.57 0.36 0.58 0.66 0.60 0.49 0.32 0.33
0.05 0.03 0.03 0.08 0.08 0.08 0.10 0.11 0.14 0.14 0.15 0.15 0.13 0.11 0.10 0.11 0.12 0.14 0.14 0.13 0.15 0.16 0.15 0.14 0.13 0.11 0.11 0.11 0.13 0.18 0.25 0.35 0.62 0.99 1.22 0.54 0.24 0.35 0.43 0.36 0.30 0.28 0.30
0.05 0.04 0.04 0.06 0.07 0.07 0.08 0.11 0.12 0.14 0.15 0.17 0.15 0.12 0.13 0.15 0.17 0.19 0.18 0.16 0.17 0.16 0.15 0.15 0.13 0.13 0.12 0.13 0.16 0.21 0.26 0.37 0.60 0.91 0.82 0.61 0.53 0.34 0.29 0.28 0.32 0.32 0.32
0.07 0.05 0.06 0.07 0.07 0.07 0.08 0.10 0.12 0.15 0.16 0.17 0.14 0.14 0.14 0.17 0.18 0.19 0.18 0.18 0.18 0.15 0.14 0.14 0.13 0.13 0.14 0.15 0.20 0.24 0.33 0.49 0.66 0.53 0.45 0.58 0.53 0.36 0.30 0.36 0.39 0.33 0.34
0.09 0.10 0.10 0.11 0.09 0.10 0.10 0.11 0.13 0.14 0.15 0.16 0.14 0.15 0.16 0.18 0.19 0.18 0.17 0.18 0.17 0.15 0.15 0.16 0.16 0.14 0.16 0.18 0.23 0.29 0.40 0.55 0.63 0.42 0.44 0.66 0.54 0.31 0.34 0.48 0.58 0.46 0.34
0.15 0.17 0.19 0.18 0.17 0.15 0.13 0.13 0.14 0.16 0.16 0.17 0.18 0.18 0.18 0.20 0.20 0.19 0.19 0.19 0.19 0.16 0.16 0.18 0.19 0.18 0.18 0.19 0.26 0.32 0.35 0.39 0.44 0.40 0.41 0.54 0.39 0.29 0.36 0.54 0.69 0.66 0.57
0.37 0.47 0.39 0.26 0.22 0.23 0.22 0.21 0.20 0.21 0.23 0.22 0.22 0.20 0.21 0.21 0.22 0.23 0.24 0.25 0.25 0.23 0.23 0.21 0.18 0.22 0.23 0.24 0.28 0.32 0.34 0.40 0.51 0.55 0.47 0.51 0.34 0.35 0.43 0.53 0.64 0.72 0.72
0.54 0.57 0.52 0.38 0.33 0.26 0.22 0.24 0.26 0.27 0.28 0.26 0.24 0.24 0.24 0.23 0.25 0.29 0.30 0.37 0.38 0.39 0.42 0.38 0.30 0.29 0.34 0.35 0.33 0.36 0.40 0.42 0.51 0.57 0.68 0.55 0.42 0.48 0.55 0.58 0.63 0.75 0.81
0.96 0.84 0.73 0.48 0.38 0.35 0.30 0.28 0.34 0.35 0.34 0.33 0.35 0.33 0.38 0.48 0.54 0.68 0.62 0.71 0.68 0.70 0.69 0.67 0.60 0.59 0.62 0.51 0.50 0.57 0.55 0.48 0.69 0.79 0.74 0.55 0.56 0.75 0.86 0.73 0.71 0.75 0.79
1.46 1.28 1.04 0.74 0.59 0.52 0.43 0.45 0.50 0.51 0.60 0.61 0.75 0.80 0.97 1.16 1.13 0.89 1.00 1.22 1.27 1.26 1.19 1.19 1.29 1.16 1.00 0.85 1.15 1.35 0.76 0.62 0.80 0.80 0.76 0.85 1.00 1.24 1.38 1.15 0.96 0.85 0.81
1.67 1.50 1.37 1.13 0.91 0.72 0.71 0.70 0.76 0.89 1.17 1.06 1.01 1.14 1.45 1.35 1.12 1.00 1.15 1.44 1.71 1.72 1.64 1.74 1.87 1.52 1.58 1.75 1.87 1.87 1.20 0.95 1.05 1.02 0.87 1.09 1.35 1.65 1.87 1.67 1.33 1.14 1.01
2.24 1.99 1.77 1.61 1.37 1.27 1.15 1.03 0.95 1.00 1.14 1.13 1.25 1.18 1.49 1.57 1.45 1.40 1.53 1.63 1.85 2.08 2.38 2.30 2.42 2.30 2.22 2.08 2.09 2.04 1.71 1.57 1.51 1.57 1.58 1.54 1.65 1.88 2.15 2.16 1.87 1.56 1.33
2.66 2.44 2.28 2.13 2.03 1.96 1.75 1.51 1.22 1.28 1.25 1.26 1.46 1.46 1.58 1.82 1.88 1.97 1.94 1.85 1.77 2.13 2.54 2.73 2.46 2.74 2.76 2.36 2.06 1.93 1.86 1.83 2.00 2.20 2.13 2.30 2.22 2.18 2.39 2.46 2.27 2.02 1.83
2.82 2.92 2.99 2.86 2.74 2.69 2.44 2.20 1.94 1.76 1.81 1.77 1.79 1.91 2.05 2.21 2.37 2.42 2.27 2.15 1.96 2.00 2.30 2.51 2.51 2.73 2.62 2.48 1.91 1.81 1.76 1.87 2.03 2.07 2.12 2.58 2.52 2.30 2.30 2.43 2.47 2.33 2.16
2.98 3.40 3.65 3.69 3.59 3.51 3.32 2.98 2.59 2.38 2.40 2.53 2.57 2.61 2.54 2.60 2.84 2.72 2.45 2.15 2.05 2.12 2.24 2.24 2.27 2.36 2.23 2.14 1.92 1.98 1.95 1.84 1.74 1.75 1.92 2.17 2.11 1.93 1.91 2.02 2.23 2.41 2.57
3.26 3.81 4.11 4.26 4.43 4.28 4.15 3.78 3.28 2.98 2.88 2.85 2.89 2.87 2.80 2.82 2.71 2.65 2.31 1.97 2.02 2.12 2.13 2.11 2.00 2.07 2.07 2.13 2.12 1.97 2.04 1.92 1.57 1.53 1.61 1.60 1.68 1.55 1.68 1.77 1.87 2.09 2.55
3.54 4.22 4.61 5.05 5.29 5.13 4.73 4.17 3.67 3.54 3.39 3.18 3.10 2.97 2.84 2.63 2.46 2.54 2.24 2.07 2.00 1.99 1.89 1.78 1.98 2.10 2.10 2.13 2.00 1.86 1.67 1.52 1.28 1.14 1.12 1.04 1.17 1.36 1.50 1.58 1.64 1.75 2.23
3.63 4.39 4.98 5.47 5.63 5.32 4.70 4.22 4.04 3.88 3.51 3.20 2.84 2.53 2.32 2.22 2.08 2.18 1.97 1.87 1.95 1.97 1.82 1.85 2.01 2.04 1.86 1.92 1.78 1.57 1.40 1.18 1.08 0.97 0.84 0.83 0.78 0.77 0.97 1.33 1.61 1.40 1.73
3.86 4.55 5.10 5.44 5.38 5.11 4.71 4.27 3.94 3.47 3.12 2.77 2.39 2.08 1.88 1.72 1.65 1.83 1.67 1.75 1.76 1.72 1.60 1.56 1.64 1.65 1.45 1.69 1.86 1.44 1.07 0.93 0.86 0.75 0.75 0.78 0.71 0.75 0.95 1.22 1.41 1.51 1.42
3.62 4.10 4.47 4.39 4.05 3.89 3.80 3.62 3.31 3.26 3.09 2.82 2.56 2.30 1.88 1.70 1.58 1.46 1.53 1.47 1.48 1.55 1.41 1.32 1.46 1.45 1.24 1.45 1.57 1.48 1.11 0.95 0.80 0.59 0.63 0.63 0.68 0.83 0.85 0.93 1.18 1.35 1.29
3.00 3.29 3.32 3.17 2.93 2.91 2.92 2.79 2.79 2.95 2.99 2.86 2.65 2.37 2.03 1.82 1.70 1.60 1.51 1.36 1.32 1.28 1.27 1.24 1.31 1.33 1.22 1.19 1.24 1.41 1.19 0.94 0.77 0.56 0.50 0.56 0.72 0.87 0.84 0.94 0.99 1.16 1.20
2.21 2.35 2.37 2.37 2.27 2.24 2.28 2.15 1.97 2.01 2.16 2.31 2.46 2.41 2.38 2.18 1.93 1.73 1.58 1.38 1.19 1.10 1.20 1.02 1.06 1.23 1.28 1.10 1.03 1.05 1.07 1.14 1.11 0.80 0.54 0.47 0.68 0.77 0.78 0.77 0.85 1.06 1.17
1.49 1.63 1.67 1.86 2.07 2.13 2.10 2.16 1.97 1.67 1.58 1.56 1.67 1.80 1.84 1.84 1.72 1.49 1.38 1.30 1.11 0.99 1.00 0.99 1.11 1.14 1.14 1.04 1.01 0.97 1.02 1.17 1.17 1.09 0.83 0.69 0.70 0.62 0.59 0.64 0.78 0.95 1.09
1.11 1.25 1.43 1.68 1.99 2.11 2.08 1.97 1.87 1.72 1.65 1.55 1.46 1.42 1.36 1.39 1.35 1.26 1.17 1.13 1.02 0.97 0.99 0.94 0.99 1.07 1.14 1.16 1.15 1.14 1.17 1.16 1.22 1.34 1.15 0.99 0.90 0.73 0.67 0.76 0.89 1.07 1.19